WCG358 EPGD-EPKT

Flight info

Callsign WCG358
Flight time 0h 52m
Altitude 21000
Route IRLUN N133 PENEX/N0426F270 N133 VIDEV T359 OVBOR N133 NEGUV/N0432F280 M66 KUKAM
Aircraft A321/M-SDE3FGHIRWY/LB1

Departure

Time 2026-05-05 18:48
Airport Gdańsk Lech Wałęsa Airport (EPGD)

Arrival

Time 2026-05-05 19:40
Airport Katowice Wojciech Korfanty International Airport (EPKT)
Time Latitude Longitude Altitude Speed Heading
2026-05-05 18:11 54.37988 18.47213 460 ft 0 kts 353°
2026-05-05 18:33 54.37982 18.47214 460 ft 4 kts 353°
2026-05-05 18:33 54.37958 18.47219 458 ft 1 kts 353°
2026-05-05 18:33 54.37937 18.47226 457 ft 4 kts 321°
2026-05-05 18:34 54.37926 18.47255 459 ft 4 kts 291°
2026-05-05 18:34 54.37920 18.47279 457 ft 0 kts 293°
2026-05-05 18:38 54.37926 18.47256 460 ft 5 kts 292°
2026-05-05 18:38 54.37942 18.47190 460 ft 7 kts 292°
2026-05-05 18:39 54.37962 18.47100 460 ft 9 kts 287°
2026-05-05 18:39 54.37930 18.47001 460 ft 11 kts 212°
2026-05-05 18:39 54.37856 18.46987 458 ft 12 kts 148°
2026-05-05 18:39 54.37813 18.47118 458 ft 14 kts 113°
2026-05-05 18:40 54.37772 18.47283 460 ft 16 kts 113°
2026-05-05 18:40 54.37727 18.47464 462 ft 17 kts 113°
2026-05-05 18:40 54.37682 18.47647 465 ft 17 kts 113°
2026-05-05 18:40 54.37638 18.47827 468 ft 16 kts 112°
2026-05-05 18:41 54.37595 18.48004 472 ft 16 kts 112°
2026-05-05 18:41 54.37551 18.48178 473 ft 15 kts 113°
2026-05-05 18:41 54.37512 18.48337 476 ft 14 kts 113°
2026-05-05 18:41 54.37477 18.48478 480 ft 12 kts 113°
2026-05-05 18:42 54.37438 18.48635 483 ft 16 kts 113°
2026-05-05 18:42 54.37395 18.48807 488 ft 16 kts 113°
2026-05-05 18:42 54.37351 18.48982 492 ft 17 kts 113°
2026-05-05 18:42 54.37305 18.49174 493 ft 18 kts 112°
2026-05-05 18:43 54.37229 18.49271 496 ft 13 kts 190°
2026-05-05 18:43 54.37206 18.49252 496 ft 0 kts 214°
2026-05-05 18:46 54.37205 18.49252 496 ft 1 kts 214°
2026-05-05 18:46 54.37192 18.49236 488 ft 4 kts 217°
2026-05-05 18:46 54.37159 18.49170 492 ft 9 kts 241°
2026-05-05 18:46 54.37157 18.49047 495 ft 12 kts 289°
2026-05-05 18:47 54.37167 18.49008 491 ft 1 kts 292°
2026-05-05 18:47 54.37193 18.48899 491 ft 38 kts 293°
2026-05-05 18:47 54.37414 18.48007 474 ft 122 kts 293°
2026-05-05 18:47 54.37822 18.46386 762 ft 157 kts 295°
2026-05-05 18:48 54.38257 18.44701 1721 ft 153 kts 296°
2026-05-05 18:48 54.38674 18.43007 2469 ft 158 kts 295°
2026-05-05 18:48 54.39130 18.41140 2862 ft 180 kts 294°
2026-05-05 18:48 54.39645 18.39036 3214 ft 202 kts 294°
2026-05-05 18:49 54.40210 18.36718 3478 ft 224 kts 293°
2026-05-05 18:49 54.40829 18.34177 4030 ft 234 kts 293°
2026-05-05 18:49 54.41387 18.31491 4714 ft 249 kts 279°
2026-05-05 18:49 54.41211 18.28462 5261 ft 264 kts 248°
2026-05-05 18:50 54.40104 18.25950 6090 ft 270 kts 217°
2026-05-05 18:50 54.38353 18.24786 6917 ft 276 kts 185°
2026-05-05 18:50 54.37079 18.25009 7457 ft 281 kts 166°
2026-05-05 18:50 54.34617 18.26508 8587 ft 284 kts 162°
2026-05-05 18:51 54.33384 18.27305 9149 ft 286 kts 162°
2026-05-05 18:51 54.31502 18.28533 9967 ft 290 kts 162°
2026-05-05 18:51 54.29575 18.29784 10441 ft 306 kts 162°
2026-05-05 18:51 54.27509 18.31110 10636 ft 329 kts 162°
2026-05-05 18:52 54.25275 18.32531 10776 ft 353 kts 162°
2026-05-05 18:52 54.22906 18.34033 11066 ft 368 kts 162°
2026-05-05 18:52 54.20515 18.35552 11660 ft 373 kts 162°
2026-05-05 18:52 54.18067 18.37111 12296 ft 377 kts 163°
2026-05-05 18:53 54.15584 18.38689 12943 ft 381 kts 163°
2026-05-05 18:53 54.13083 18.40270 13583 ft 385 kts 163°
2026-05-05 18:53 54.10547 18.41868 14174 ft 389 kts 163°
2026-05-05 18:53 54.07997 18.43474 14776 ft 392 kts 163°
2026-05-05 18:54 54.05423 18.45092 15374 ft 395 kts 163°
2026-05-05 18:54 54.02865 18.46697 15951 ft 398 kts 163°
2026-05-05 18:54 54.00254 18.48336 16534 ft 401 kts 164°
2026-05-05 18:54 53.97623 18.49985 17114 ft 403 kts 164°
2026-05-05 18:55 53.94982 18.51641 17691 ft 405 kts 164°
2026-05-05 18:55 53.92323 18.53304 18239 ft 408 kts 164°
2026-05-05 18:55 53.89673 18.54954 18714 ft 410 kts 164°
2026-05-05 18:55 53.86979 18.56629 19185 ft 413 kts 164°
2026-05-05 18:56 53.84270 18.58311 19655 ft 416 kts 165°
2026-05-05 18:56 53.81524 18.60010 20130 ft 419 kts 165°
2026-05-05 18:56 53.78806 18.61691 20592 ft 422 kts 165°
2026-05-05 18:56 53.76040 18.63403 21053 ft 425 kts 165°
2026-05-05 18:57 53.73261 18.65120 21516 ft 427 kts 165°
2026-05-05 18:57 53.70444 18.66859 21963 ft 430 kts 165°
2026-05-05 18:57 53.67630 18.68597 22390 ft 433 kts 165°
2026-05-05 18:57 53.64784 18.70354 22833 ft 436 kts 165°
2026-05-05 18:58 53.61947 18.72098 23256 ft 439 kts 165°
2026-05-05 18:58 53.59062 18.73868 23646 ft 442 kts 165°
2026-05-05 18:58 53.56158 18.75652 24028 ft 443 kts 165°
2026-05-05 18:58 53.53260 18.77431 24541 ft 442 kts 165°
2026-05-05 18:59 53.50364 18.79167 25064 ft 440 kts 166°
2026-05-05 18:59 53.47462 18.80773 25599 ft 437 kts 167°
2026-05-05 18:59 53.44599 18.82266 26136 ft 435 kts 168°
2026-05-05 18:59 53.41710 18.83733 26694 ft 433 kts 168°
2026-05-05 19:00 53.38823 18.85196 27248 ft 431 kts 168°
2026-05-05 19:00 53.35952 18.86664 27838 ft 429 kts 168°
2026-05-05 19:00 53.33101 18.88136 28422 ft 427 kts 168°
2026-05-05 19:00 53.30271 18.89613 29010 ft 425 kts 168°
2026-05-05 19:01 53.27490 18.91075 29561 ft 423 kts 168°
2026-05-05 19:01 53.24681 18.92555 30099 ft 421 kts 168°
2026-05-05 19:01 53.21891 18.94021 30584 ft 419 kts 168°
2026-05-05 19:01 53.19117 18.95481 31085 ft 416 kts 168°
2026-05-05 19:02 53.16356 18.96929 31591 ft 413 kts 169°
2026-05-05 19:02 53.13653 18.98337 32099 ft 410 kts 169°
2026-05-05 19:02 53.10934 18.99750 32622 ft 407 kts 169°
2026-05-05 19:02 53.08244 19.01145 33148 ft 403 kts 169°
2026-05-05 19:03 53.05571 19.02527 33701 ft 398 kts 169°
2026-05-05 19:03 53.02942 19.03890 34197 ft 393 kts 169°
2026-05-05 19:03 53.00341 19.05236 34668 ft 388 kts 169°
2026-05-05 19:03 52.97782 19.06552 34823 ft 392 kts 169°
2026-05-05 19:04 52.92471 19.09258 34856 ft 407 kts 168°
2026-05-05 19:04 52.86970 19.12066 34856 ft 424 kts 168°
2026-05-05 19:05 52.81205 19.15022 34849 ft 442 kts 167°
2026-05-05 19:05 52.75208 19.18099 34844 ft 456 kts 167°
2026-05-05 19:06 52.69140 19.21202 34838 ft 460 kts 167°
2026-05-05 19:06 52.63000 19.24326 34835 ft 460 kts 167°
2026-05-05 19:07 52.56904 19.27415 34838 ft 460 kts 167°
2026-05-05 19:07 52.50771 19.30516 34834 ft 461 kts 167°
2026-05-05 19:08 52.44630 19.33600 34840 ft 461 kts 167°
2026-05-05 19:08 52.38524 19.36667 34831 ft 461 kts 167°
2026-05-05 19:09 52.32378 19.39747 34829 ft 461 kts 167°
2026-05-05 19:09 52.26226 19.42815 34830 ft 461 kts 167°
2026-05-05 19:10 52.20111 19.45860 34827 ft 461 kts 166°
2026-05-05 19:10 52.13961 19.48910 34822 ft 460 kts 166°
2026-05-05 19:11 52.10679 19.50530 34824 ft 460 kts 166°
2026-05-05 19:11 52.04630 19.53522 34821 ft 460 kts 166°
2026-05-05 19:12 51.98523 19.56534 34812 ft 460 kts 166°
2026-05-05 19:12 51.92389 19.59536 34812 ft 459 kts 166°
2026-05-05 19:13 51.86254 19.62538 34806 ft 459 kts 166°
2026-05-05 19:13 51.80174 19.65517 34807 ft 459 kts 166°
2026-05-05 19:14 51.74074 19.68640 34804 ft 459 kts 165°
2026-05-05 19:14 51.67992 19.71924 34803 ft 459 kts 164°
2026-05-05 19:15 51.61957 19.75162 34805 ft 459 kts 164°
2026-05-05 19:15 51.55926 19.78587 34810 ft 462 kts 157°
2026-05-05 19:16 51.50643 19.84412 34811 ft 467 kts 137°
2026-05-05 19:16 51.45568 19.90717 34401 ft 456 kts 164°
2026-05-05 19:17 51.42540 19.91715 34219 ft 437 kts 178°
2026-05-05 19:17 51.39515 19.92194 33630 ft 436 kts 176°
2026-05-05 19:17 51.36511 19.92807 32853 ft 432 kts 174°
2026-05-05 19:17 51.33602 19.93505 32111 ft 425 kts 173°
2026-05-05 19:18 51.30691 19.94257 31387 ft 418 kts 173°
2026-05-05 19:18 51.27831 19.95001 30683 ft 411 kts 173°
2026-05-05 19:18 51.25055 19.95700 29989 ft 405 kts 173°
2026-05-05 19:18 51.22280 19.96373 29222 ft 399 kts 173°
2026-05-05 19:19 51.19555 19.97020 28443 ft 393 kts 174°
2026-05-05 19:19 51.16858 19.97651 27683 ft 388 kts 174°
2026-05-05 19:19 51.14200 19.98265 26951 ft 383 kts 174°
2026-05-05 19:19 51.11579 19.98867 26227 ft 378 kts 173°
2026-05-05 19:20 51.09017 19.99459 25537 ft 374 kts 173°
2026-05-05 19:20 51.06455 20.00051 24857 ft 369 kts 173°
2026-05-05 19:20 51.03926 20.00637 24187 ft 365 kts 173°
2026-05-05 19:20 51.01419 20.01221 23535 ft 360 kts 173°
2026-05-05 19:21 50.98950 20.01800 22844 ft 355 kts 173°
2026-05-05 19:21 50.96564 20.02361 22316 ft 349 kts 173°
2026-05-05 19:21 50.94176 20.02921 21793 ft 346 kts 173°
2026-05-05 19:21 50.91794 20.03474 21281 ft 344 kts 173°
2026-05-05 19:22 50.89429 20.04021 20762 ft 343 kts 173°
2026-05-05 19:22 50.87055 20.04448 20257 ft 340 kts 180°
2026-05-05 19:22 50.84714 20.04198 19765 ft 336 kts 192°
2026-05-05 19:22 50.82476 20.03230 19282 ft 332 kts 202°
2026-05-05 19:23 50.80425 20.01603 18806 ft 329 kts 213°
2026-05-05 19:23 50.78635 19.99391 18337 ft 327 kts 224°
2026-05-05 19:23 50.77145 19.96677 17832 ft 325 kts 234°
2026-05-05 19:23 50.75981 19.93677 17305 ft 323 kts 238°
2026-05-05 19:24 50.74842 19.90619 16773 ft 321 kts 238°
2026-05-05 19:24 50.73698 19.87587 16274 ft 319 kts 237°
2026-05-05 19:24 50.72560 19.84585 15758 ft 317 kts 237°
2026-05-05 19:24 50.71431 19.81608 15284 ft 313 kts 237°
2026-05-05 19:25 50.70324 19.78684 14821 ft 307 kts 237°
2026-05-05 19:25 50.69256 19.75867 14368 ft 301 kts 237°
2026-05-05 19:25 50.68187 19.73058 13912 ft 296 kts 237°
2026-05-05 19:25 50.67131 19.70286 13445 ft 294 kts 237°
2026-05-05 19:26 50.66084 19.67516 12938 ft 293 kts 238°
2026-05-05 19:26 50.65327 19.64518 12456 ft 296 kts 254°
2026-05-05 19:26 50.65124 19.61308 11971 ft 300 kts 270°
2026-05-05 19:26 50.65276 19.58013 11492 ft 300 kts 271°
2026-05-05 19:27 50.65424 19.54743 11019 ft 299 kts 271°
2026-05-05 19:27 50.65564 19.51491 10551 ft 295 kts 270°
2026-05-05 19:27 50.65644 19.48284 10088 ft 290 kts 268°
2026-05-05 19:27 50.65670 19.45163 9642 ft 287 kts 267°
2026-05-05 19:28 50.65503 19.42074 9149 ft 278 kts 249°
2026-05-05 19:28 50.64465 19.39617 8657 ft 268 kts 217°
2026-05-05 19:28 50.62796 19.38465 8178 ft 261 kts 187°
2026-05-05 19:28 50.61016 19.38577 7702 ft 256 kts 178°
2026-05-05 19:29 50.59247 19.38661 7233 ft 249 kts 181°
2026-05-05 19:29 50.57587 19.39323 6767 ft 249 kts 152°
2026-05-05 19:29 50.56465 19.41380 6308 ft 255 kts 114°
2026-05-05 19:29 50.56212 19.44103 5837 ft 255 kts 96°
2026-05-05 19:30 50.56191 19.46805 5713 ft 241 kts 94°
2026-05-05 19:30 50.56197 19.49432 5638 ft 238 kts 94°
2026-05-05 19:30 50.56203 19.52033 5557 ft 237 kts 95°
2026-05-05 19:30 50.56203 19.54640 5483 ft 237 kts 95°
2026-05-05 19:31 50.56197 19.57196 5403 ft 237 kts 95°
2026-05-05 19:31 50.55958 19.59715 5328 ft 228 kts 118°
2026-05-05 19:31 50.55116 19.61724 5253 ft 216 kts 144°
2026-05-05 19:31 50.53871 19.62911 5178 ft 205 kts 168°
2026-05-05 19:32 50.52492 19.63178 5120 ft 197 kts 189°
2026-05-05 19:32 50.51194 19.62592 5049 ft 193 kts 210°
2026-05-05 19:32 50.50167 19.61324 4974 ft 191 kts 229°
2026-05-05 19:32 50.49507 19.59512 4904 ft 194 kts 249°
2026-05-05 19:33 50.49262 19.57400 4832 ft 197 kts 258°
2026-05-05 19:33 50.49071 19.55265 4770 ft 197 kts 257°
2026-05-05 19:33 50.48876 19.53128 4710 ft 197 kts 257°
2026-05-05 19:33 50.48686 19.51048 4625 ft 187 kts 257°
2026-05-05 19:34 50.48507 19.49074 4551 ft 177 kts 257°
2026-05-05 19:34 50.48330 19.47176 4469 ft 175 kts 257°
2026-05-05 19:34 50.48153 19.45284 4392 ft 174 kts 256°
2026-05-05 19:35 50.47803 19.41534 4243 ft 176 kts 256°
2026-05-05 19:35 50.47631 19.39633 4170 ft 176 kts 257°
2026-05-05 19:35 50.47538 19.37708 4092 ft 177 kts 262°
2026-05-05 19:35 50.47513 19.35767 4030 ft 178 kts 264°
2026-05-05 19:36 50.47511 19.33820 3907 ft 178 kts 264°
2026-05-05 19:36 50.47517 19.31894 3713 ft 171 kts 264°
2026-05-05 19:36 50.47525 19.30069 3501 ft 164 kts 263°
2026-05-05 19:36 50.47532 19.28334 3296 ft 159 kts 263°
2026-05-05 19:37 50.47539 19.26605 3111 ft 157 kts 264°
2026-05-05 19:37 50.47546 19.24933 2896 ft 148 kts 262°
2026-05-05 19:37 50.47551 19.23880 2774 ft 143 kts 262°
2026-05-05 19:37 50.47559 19.21846 2525 ft 136 kts 263°
2026-05-05 19:38 50.47562 19.20872 2409 ft 134 kts 263°
2026-05-05 19:38 50.47568 19.18941 2174 ft 132 kts 262°
2026-05-05 19:38 50.47572 19.17496 2003 ft 134 kts 262°
2026-05-05 19:38 50.47576 19.16036 1818 ft 136 kts 265°
2026-05-05 19:39 50.47580 19.15020 1691 ft 138 kts 265°
2026-05-05 19:39 50.47584 19.13479 1500 ft 141 kts 267°
2026-05-05 19:39 50.47595 19.11935 1303 ft 142 kts 266°
2026-05-05 19:39 50.47593 19.10414 1066 ft 139 kts 266°
2026-05-05 19:40 50.47589 19.08972 1001 ft 114 kts 272°
2026-05-05 19:40 50.47598 19.07997 1001 ft 65 kts 270°
2026-05-05 19:40 50.47600 19.07458 1001 ft 39 kts 269°
2026-05-05 19:40 50.47583 19.07158 1002 ft 24 kts 256°
2026-05-05 19:41 50.47521 19.06937 1002 ft 13 kts 238°
2026-05-05 19:41 50.47506 19.06900 1005 ft 0 kts 237°
2026-05-05 19:41 50.47504 19.06896 1003 ft 0 kts 237°
2026-05-05 19:42 50.47503 19.06892 1002 ft 2 kts 237°
2026-05-05 19:42 50.47488 19.06871 999 ft 4 kts 209°
2026-05-05 19:42 50.47453 19.06872 1002 ft 6 kts 165°
2026-05-05 19:42 50.47428 19.06935 1000 ft 9 kts 99°
2026-05-05 19:43 50.47426 19.07043 999 ft 11 kts 90°
2026-05-05 19:43 50.47425 19.07178 999 ft 14 kts 90°
2026-05-05 19:43 50.47426 19.07280 999 ft 0 kts 90°
2026-05-05 19:44 50.47426 19.07303 999 ft 7 kts 90°
2026-05-05 19:44 50.47413 19.07410 1003 ft 11 kts 130°
2026-05-05 19:44 50.47331 19.07438 1000 ft 14 kts 178°
2026-05-05 19:44 50.47245 19.07487 998 ft 14 kts 120°
2026-05-05 19:45 50.47234 19.07644 1003 ft 14 kts 90°
2026-05-05 19:45 50.47234 19.07797 1003 ft 15 kts 90°
2026-05-05 19:45 50.47233 19.07970 1002 ft 17 kts 90°
2026-05-05 19:45 50.47233 19.08149 1004 ft 18 kts 89°
2026-05-05 19:46 50.47233 19.08355 1004 ft 20 kts 90°
2026-05-05 19:46 50.47232 19.08573 1004 ft 20 kts 91°
2026-05-05 19:46 50.47231 19.08801 1004 ft 20 kts 89°
2026-05-05 19:46 50.47230 19.09031 1004 ft 21 kts 89°
2026-05-05 19:47 50.47231 19.09252 1004 ft 16 kts 90°
2026-05-05 19:47 50.47230 19.09402 1001 ft 13 kts 91°
2026-05-05 19:47 50.47229 19.09556 1001 ft 15 kts 90°
2026-05-05 19:47 50.47229 19.09686 1004 ft 7 kts 91°
2026-05-05 19:48 50.47202 19.09713 999 ft 6 kts 174°
2026-05-05 19:48 50.47158 19.09715 999 ft 5 kts 179°
2026-05-05 19:48 50.47142 19.09716 999 ft 0 kts 180°